Location: Berville
(49.1893°N, 2.0748°E)
Time: 11:42:22
(UTC+00:00)

YAOGAN 1 - Pass Details

Date: 08 February 2023
Orbit: 616 x 618 km, 97.8° (Epoch: 25 March)

Event Time Altitude Azimuth Distance (km) Brightness Sun altitude
Rises 17:52:22 0° 143° (SE) 2,884 5.7 -9.1°
Reaches altitude 10° 17:54:39 10° 136° (SE) 1,983 4.8 -9.4°
Maximum altitude 17:58:39 38° 68° (ENE) 949 3.0 -10.1°
Drops below altitude 10° 18:02:40 10° 0° (N) 1,998 5.1 -10.7°
Sets 18:04:58 0° 353° (N) 2,908 6.0 -11.1°
